Location: Unspecified
(0.0000°N, 0.0000°E)
Time: 12:57:21
(UTC+00:00)

Vanguard 1 Rocket - Pass Details

Date: 09 December 2017
Orbit: 652 x 4225 km, 34.3° (Epoch: 21 July)

Event Time Altitude Azimuth Distance (km) Brightness Sun altitude
Exits shadow 00:33:54 32° 84° (E) 4,967 10.9 -65.0°
Drops below altitude 10° 00:42:00 10° 102° (ESE) 5,881 11.6 -64.2°
Sets 00:45:55 0° 107° (ESE) 6,498 12.0 -63.7°
